Regional Weather Roundup
Issued by NWS Green Bay, WI

Current Version | Previous Version | Text Only | Print | Product List | Glossary On
Versions: 1 2 3 4 5 6 7 8 9 10 11 12 13 14 15 16 17 18 19 20 21 22 23 24 25 26 27 28 29 30 31 32 33 34 35 36 37 38 39 40 41 42 43 44 45 46 47 48 49 50
000
ASUS43 KGRB 220611
RWRGRB

NORTH-CENTRAL AND NORTHEAST WISCONSIN REGIONAL WEATHER ROUNDUP
NATIONAL WEATHER SERVICE GREEN BAY WI
100 AM CDT TUE OCT 22 2019

WIZ005-009-010>012-018-019-220700-
NORTH CENTRAL WISCONSIN

CITY           SKY/WX    TMP DP  RH WIND       PRES   REMARKS
IRONWOOD       MOCLDY    44  40  85 VRB5      29.23S
MANITOWISH WTR CLOUDY    44  41  91 S7        29.24S
ARBOR VITAE    CLOUDY    46  40  82 S7        29.24F
EAGLE RIVER    MOCLDY    43  39  85 S5        29.26F
LAND O LAKES   CLOUDY    44  39  83 SE5       29.27F
RHINELANDER    NOT AVBL
PHILLIPS       CLOUDY    45  40  82 SE7       29.22S
ANTIGO         CLOUDY    44  40  88 SE13      29.28F
TOMAHAWK       DRIZZLE   42  40  92 CALM      29.25F
MERRILL        RAIN      46  40  81 S7        29.26F
$$

WIZ013-073-220700-
NORTHEAST WISCONSIN

CITY           SKY/WX    TMP DP  RH WIND       PRES   REMARKS
IRON MOUNTAIN  CLOUDY    48  41  76 S14G22    29.30F
MARINETTE      MOCLDY    50  42  74 S8        29.36S
OCONTO         CLOUDY    49  41  72 S8        29.35F
$$

WIZ017-030-035>037-045-220700-
CENTRAL WISCONSIN

CITY           SKY/WX    TMP DP  RH WIND       PRES   REMARKS
MEDFORD        CLOUDY    43  40  89 SE7       29.21F
WAUSAU         NOT AVBL
MOSINEE        CLOUDY    45  39  81 SE9G20    29.26F
MARSHFIELD     NOT AVBL
WISC RAPIDS    CLOUDY    49  41  74 S9        29.24F
STEVENS POINT  CLOUDY    46  39  77 SE10      29.26F
WAUPACA        CLOUDY    51  41  69 SE9       29.30F
SHAWANO        CLOUDY    50  41  71 S8        29.32F
CLINTONVILLE   CLOUDY    49  39  70 S10G17    29.31F
WAUTOMA        NOT AVBL
$$

WIZ038-039-048-051-220700-
FOX VALLEY

CITY           SKY/WX    TMP DP  RH WIND       PRES   REMARKS
NWS GREEN BAY  CLOUDY    50  40  68 S13       29.35F
APPLETON       CLOUDY    48  36  61 S18G24    29.32F
OSHKOSH        CLOUDY    50  41  71 S17G28    29.33F
FOND DU LAC    CLOUDY    52  40  63 S14G25    29.35F
$$

WIZ022-050-052-220700-
EAST CENTRAL WISCONSIN

CITY           SKY/WX    TMP DP  RH WIND       PRES   REMARKS
EPHRAIM        FAIR      46  41  85 S8        29.37S
WASHINGTON ISL CLOUDY    49  43  79 S10G20    29.38S
STURGEON BAY   NOT AVBL
MANITOWOC      CLOUDY    48  41  76 S16       29.40F
SHEBOYGAN      MOCLDY    48  40  73 S13       29.39F
$$

LMZ563-521-522-541>543-220700-
LAKESHORE

STATION/POSITION TIME  TEMP    WIND        PRES    VSBY  WAVE
                       AIR SEA DIR/SP/G                  HT/PER
                 (UTC) (F)     (DEG/KT/KT) (MB)    (MI)  (FT/S)
SHEBOYGAN LKSHOR 0600   46     190/ 19/ 21  995.7F
KEWAUNEE LKSHORE 0524   47     180/ 16/ 18  995.3
NORTHPORT PIER   0540   51     150/  5/ 12  995.3S
N MID LAKE BUOY  0550   54 54  200/ 25/ 33  996.2F         8/ 7
SISTER BAY LKSHO 0557   49     180/ 10/ 13   N/A
CHAMBERS ISLAND  0540   52     130/  7/ 15   N/A
MENOMINEE LKSHOR 0524   51 50  200/ 11/ 15  994.3
$$



USA.gov is the U.S. government's official web portal to all federal, state and local government web resources and services.